Time,TemperatureF,DewpointF,PressureIn,WindDirection,WindDirectionDegrees,WindSpeedMPH,WindSpeedGustMPH,Humidity,HourlyPrecipIn,Conditions,Clouds,dailyrainin,SoftwareType,DateUTC
2013-05-15 00:00:00,48.8,43.9,29.98,WNW,290,13.0,13.0,83,0.00,,BKN016,0.00,VWS V14.01,2013-05-15 07:00:00,
2013-05-15 00:05:00,49.1,44.2,29.98,West,270,11.0,13.0,83,0.00,,OVC010,0.00,VWS V14.01,2013-05-15 07:05:00,
2013-05-15 00:10:00,49.1,44.2,29.98,WNW,290,4.0,15.0,83,0.00,,OVC010,0.00,VWS V14.01,2013-05-15 07:10:00,
2013-05-15 00:15:00,48.9,44.0,29.98,NNE,20,1.0,6.0,83,0.00,,OVC010,0.00,VWS V14.01,2013-05-15 07:15:00,
2013-05-15 00:20:00,48.9,44.0,29.98,NW,324,13.0,13.0,83,0.00,,OVC010,0.00,VWS V14.01,2013-05-15 07:20:00,
2013-05-15 00:25:00,48.8,43.9,29.98,West,268,4.0,13.0,83,0.00,,OVC010,0.00,VWS V14.01,2013-05-15 07:25:00,
2013-05-15 00:30:00,48.5,43.9,29.98,WSW,255,4.0,4.0,84,0.00,,OVC010,0.00,VWS V14.01,2013-05-15 07:30:00,
2013-05-15 00:35:00,48.3,43.7,29.98,WNW,298,0.0,10.0,84,0.00,,OVC010,0.00,VWS V14.01,2013-05-15 07:35:00,
2013-05-15 00:40:00,48.2,43.9,29.98,North,360,5.0,10.0,85,0.00,,OVC010,0.00,VWS V14.01,2013-05-15 07:40:00,
2013-05-15 00:45:00,48.2,43.9,29.98,North,354,4.0,7.0,85,0.00,,OVC010,0.00,VWS V14.01,2013-05-15 07:45:00,
2013-05-15 00:50:00,48.0,44.0,29.98,North,2,3.0,9.0,86,0.00,,OVC010,0.00,VWS V14.01,2013-05-15 07:50:00,
2013-05-15 00:55:00,48.0,44.0,29.98,NNW,330,5.0,12.0,86,0.00,,OVC010,0.00,VWS V14.01,2013-05-15 07:55:00,
2013-05-15 01:00:00,48.2,44.2,29.98,WNW,293,2.0,9.0,86,0.00,,OVC010,0.00,VWS V14.01,2013-05-15 08:00:00,
2013-05-15 01:05:00,48.2,44.2,29.98,SW,235,11.0,11.0,86,0.00,,OVC008,0.00,VWS V14.01,2013-05-15 08:05:00,
2013-05-15 01:10:00,48.2,44.2,29.98,NNW,338,3.0,11.0,86,0.00,,OVC008,0.00,VWS V14.01,2013-05-15 08:10:00,
2013-05-15 01:15:00,48.0,44.0,29.98,WNW,295,6.0,6.0,86,0.00,,OVC008,0.00,VWS V14.01,2013-05-15 08:15:00,
2013-05-15 01:20:00,47.7,44.0,29.98,West,272,3.0,8.0,87,0.00,,OVC008,0.00,VWS V14.01,2013-05-15 08:20:00,
2013-05-15 01:25:00,47.6,43.9,29.98,WSW,239,0.0,10.0,87,0.00,,OVC008,0.00,VWS V14.01,2013-05-15 08:25:00,
2013-05-15 01:30:00,47.6,43.9,29.98,WNW,296,4.0,4.0,87,0.00,,OVC008,0.00,VWS V14.01,2013-05-15 08:30:00,
2013-05-15 01:35:00,47.6,43.9,29.98,WSW,246,7.0,13.0,87,0.00,,OVC008,0.00,VWS V14.01,2013-05-15 08:35:00,
2013-05-15 01:40:00,47.4,43.7,29.98,WNW,288,4.0,13.0,87,0.00,,OVC008,0.00,VWS V14.01,2013-05-15 08:40:00,
2013-05-15 01:45:00,47.4,43.7,29.98,WNW,284,7.0,7.0,87,0.00,,OVC008,0.00,VWS V14.01,2013-05-15 08:45:00,
2013-05-15 01:50:00,47.4,43.7,29.98,NW,314,4.0,10.0,87,0.00,,OVC008,0.00,VWS V14.01,2013-05-15 08:50:00,
2013-05-15 01:55:00,47.4,43.7,29.98,West,277,2.0,10.0,87,0.00,,OVC008,0.00,VWS V14.01,2013-05-15 08:55:00,
2013-05-15 02:00:00,47.4,43.7,29.97,WNW,301,12.0,12.0,87,0.00,,OVC008,0.00,VWS V14.01,2013-05-15 09:00:00,
2013-05-15 02:05:00,47.4,43.7,29.97,SW,234,2.0,12.0,87,0.00,,OVC008,0.00,VWS V14.01,2013-05-15 09:05:00,
2013-05-15 02:10:00,47.3,43.6,29.97,WNW,298,1.0,12.0,87,0.00,,OVC008,0.00,VWS V14.01,2013-05-15 09:10:00,
2013-05-15 02:15:00,47.1,43.7,29.97,NW,312,5.0,6.0,88,0.00,,OVC008,0.00,VWS V14.01,2013-05-15 09:15:00,
2013-05-15 02:20:00,47.0,43.6,29.97,North,352,4.0,6.0,88,0.00,,OVC008,0.00,VWS V14.01,2013-05-15 09:20:00,
2013-05-15 02:25:00,46.8,43.4,29.97,NNE,15,0.0,6.0,88,0.00,,OVC008,0.00,VWS V14.01,2013-05-15 09:25:00,
2013-05-15 02:30:00,46.8,43.7,29.97,WSW,251,0.0,0.0,89,0.00,,OVC008,0.00,VWS V14.01,2013-05-15 09:30:00,
2013-05-15 02:35:00,46.7,43.6,29.97,West,268,4.0,9.0,89,0.00,,OVC008,0.00,VWS V14.01,2013-05-15 09:35:00,
2013-05-15 02:40:00,46.5,43.7,29.97,NE,35,4.0,9.0,90,0.00,,OVC008,0.00,VWS V14.01,2013-05-15 09:40:00,
2013-05-15 02:45:00,46.5,43.7,29.97,NNW,337,1.0,3.0,90,0.00,,OVC008,0.00,VWS V14.01,2013-05-15 09:45:00,
2013-05-15 02:50:00,46.4,43.6,29.97,NW,313,0.0,5.0,90,0.00,,OVC008,0.00,VWS V14.01,2013-05-15 09:50:00,
2013-05-15 02:55:00,46.2,43.4,29.97,WNW,282,3.0,5.0,90,0.00,,OVC008,0.00,VWS V14.01,2013-05-15 09:55:00,
2013-05-15 03:00:00,46.2,43.7,29.97,WNW,298,3.0,4.0,91,0.00,,OVC008,0.00,VWS V14.01,2013-05-15 10:00:00,
2013-05-15 03:05:00,46.1,43.6,29.97,West,267,3.0,4.0,91,0.00,,OVC010,0.00,VWS V14.01,2013-05-15 10:05:00,
2013-05-15 03:10:00,46.1,43.6,29.97,West,260,2.0,9.0,91,0.00,,OVC010,0.00,VWS V14.01,2013-05-15 10:10:00,
2013-05-15 03:15:00,46.1,43.6,29.97,WNW,298,0.0,4.0,91,0.00,,OVC010,0.00,VWS V14.01,2013-05-15 10:15:00,
2013-05-15 03:20:00,46.1,43.6,29.97,West,276,4.0,7.0,91,0.00,,OVC010,0.00,VWS V14.01,2013-05-15 10:20:00,
2013-05-15 03:25:00,46.2,43.7,29.97,WNW,295,2.0,7.0,91,0.00,,OVC010,0.00,VWS V14.01,2013-05-15 10:25:00,
2013-05-15 03:30:00,46.2,43.7,29.97,WNW,288,14.0,14.0,91,0.00,,OVC010,0.00,VWS V14.01,2013-05-15 10:30:00,
2013-05-15 03:35:00,46.2,43.7,29.97,NW,317,6.0,14.0,91,0.00,,OVC010,0.00,VWS V14.01,2013-05-15 10:35:00,
2013-05-15 03:40:00,46.2,43.4,29.97,West,259,0.0,20.0,90,0.00,,OVC010,0.00,VWS V14.01,2013-05-15 10:40:00,
2013-05-15 03:45:00,46.5,43.7,29.97,West,274,7.0,7.0,90,0.00,,OVC012,0.00,VWS V14.01,2013-05-15 10:45:00,
2013-05-15 03:50:00,46.7,43.3,29.97,WNW,285,5.0,10.0,88,0.00,,OVC012,0.00,VWS V14.01,2013-05-15 10:50:00,
2013-05-15 03:55:00,46.5,43.1,29.97,West,268,4.0,10.0,88,0.00,,OVC012,0.00,VWS V14.01,2013-05-15 10:55:00,
2013-05-15 04:00:00,46.2,43.7,29.97,West,277,4.0,5.0,91,0.00,,CLR,0.00,VWS V14.01,2013-05-15 11:00:00,
2013-05-15 04:01:00,46.4,42.8,29.97,WSW,237,4.0,4.0,87,0.00,,OVC012,0.00,VWS V14.01,2013-05-15 11:01:00,
2013-05-15 04:06:00,46.2,42.8,29.97,West,266,4.0,11.0,88,0.00,,OVC012,0.00,VWS V14.01,2013-05-15 11:06:00,
2013-05-15 04:11:00,46.4,42.8,29.97,WNW,290,2.0,14.0,87,0.00,,OVC012,0.00,VWS V14.01,2013-05-15 11:11:00,
2013-05-15 04:15:00,46.1,43.6,29.97,NW,304,4.0,9.0,91,0.00,,CLR,0.00,VWS V14.01,2013-05-15 11:15:00,
2013-05-15 04:16:00,46.7,43.0,29.96,NW,318,13.0,13.0,87,0.00,,OVC012,0.00,VWS V14.01,2013-05-15 11:16:00,
2013-05-15 04:21:00,46.8,42.8,29.96,NW,317,13.0,13.0,86,0.00,,OVC012,0.00,VWS V14.01,2013-05-15 11:21:00,
2013-05-15 04:26:00,47.1,42.8,29.96,West,262,4.0,15.0,85,0.00,,OVC012,0.00,VWS V14.01,2013-05-15 11:26:00,
2013-05-15 04:30:00,46.2,43.7,29.97,NW,319,2.0,2.0,91,0.00,,CLR,0.00,VWS V14.01,2013-05-15 11:30:00,
2013-05-15 04:31:00,47.3,42.7,29.97,WNW,287,11.0,11.0,84,0.00,,OVC012,0.00,VWS V14.01,2013-05-15 11:31:00,
2013-05-15 04:36:00,47.1,42.8,29.97,SW,231,6.0,15.0,85,0.00,,OVC012,0.00,VWS V14.01,2013-05-15 11:36:00,
2013-05-15 04:41:00,47.0,42.7,29.97,NNW,331,4.0,15.0,85,0.00,,OVC012,0.00,VWS V14.01,2013-05-15 11:41:00,
2013-05-15 04:45:00,46.4,43.6,29.97,West,279,3.0,20.0,90,0.00,,CLR,0.00,VWS V14.01,2013-05-15 11:45:00,
2013-05-15 04:46:00,47.0,42.4,29.97,WNW,291,6.0,15.0,84,0.00,,OVC012,0.00,VWS V14.01,2013-05-15 11:46:00,
2013-05-15 04:51:00,47.0,42.4,29.97,WNW,295,2.0,15.0,84,0.00,,OVC012,0.00,VWS V14.01,2013-05-15 11:51:00,
2013-05-15 04:56:00,47.0,42.4,29.97,West,266,4.0,15.0,84,0.00,,OVC012,0.00,VWS V14.01,2013-05-15 11:56:00,
2013-05-15 05:00:00,46.5,42.8,29.97,West,262,3.0,10.0,87,0.00,,CLR,0.00,VWS V14.01,2013-05-15 12:00:00,
2013-05-15 05:01:00,47.0,42.4,29.97,NE,52,3.0,7.0,84,0.00,,OVC012,0.00,VWS V14.01,2013-05-15 12:01:00,
2013-05-15 05:07:00,47.0,42.4,29.97,West,260,7.0,11.0,84,0.00,,OVC012,0.00,VWS V14.01,2013-05-15 12:07:00,
2013-05-15 05:12:00,46.8,42.2,29.97,West,281,4.0,11.0,84,0.00,,OVC012,0.00,VWS V14.01,2013-05-15 12:12:00,
2013-05-15 05:15:00,46.5,42.8,29.96,SW,233,3.0,15.0,87,0.00,,CLR,0.00,VWS V14.01,2013-05-15 12:15:00,
2013-05-15 05:17:00,46.8,42.2,29.97,SW,225,3.0,10.0,84,0.00,,OVC012,0.00,VWS V14.01,2013-05-15 12:17:00,
2013-05-15 05:22:00,46.8,42.2,29.97,WNW,283,6.0,12.0,84,0.00,,OVC012,0.00,VWS V14.01,2013-05-15 12:22:00,
2013-05-15 05:27:00,46.8,42.2,29.97,WSW,256,3.0,12.0,84,0.00,,OVC012,0.00,VWS V14.01,2013-05-15 12:27:00,
2013-05-15 05:30:00,47.3,42.7,29.97,WSW,258,5.0,15.0,84,0.00,,CLR,0.00,VWS V14.01,2013-05-15 12:30:00,
2013-05-15 05:32:00,46.7,42.4,29.97,WNW,301,1.0,4.0,85,0.00,,OVC012,0.00,VWS V14.01,2013-05-15 12:32:00,
2013-05-15 05:37:00,46.4,42.5,29.97,West,260,4.0,9.0,86,0.00,,OVC012,0.00,VWS V14.01,2013-05-15 12:37:00,
2013-05-15 05:42:00,46.2,42.5,29.97,NNW,333,6.0,10.0,87,0.00,,OVC012,0.00,VWS V14.01,2013-05-15 12:42:00,
2013-05-15 05:45:00,47.0,42.4,29.97,NNW,328,2.0,17.0,84,0.00,,CLR,0.00,VWS V14.01,2013-05-15 12:45:00,
2013-05-15 05:47:00,46.1,42.5,29.98,NNW,333,0.0,6.0,87,0.00,,OVC012,0.00,VWS V14.01,2013-05-15 12:47:00,
2013-05-15 05:52:00,45.8,42.5,29.98,NW,320,2.0,7.0,88,0.00,,OVC012,0.00,VWS V14.01,2013-05-15 12:52:00,
2013-05-15 05:58:00,45.7,42.4,29.98,WNW,286,2.0,7.0,88,0.00,,OVC012,0.00,VWS V14.01,2013-05-15 12:58:00,
2013-05-15 06:00:00,47.0,42.4,29.97,WNW,283,5.0,15.0,84,0.00,,CLR,0.00,VWS V14.01,2013-05-15 13:00:00,
2013-05-15 06:03:00,45.7,42.7,29.98,West,276,1.0,9.0,89,0.00,,OVC012,0.00,VWS V14.01,2013-05-15 13:03:00,
2013-05-15 06:08:00,45.7,42.7,29.98,WNW,289,2.0,10.0,89,0.00,,OVC012,0.00,VWS V14.01,2013-05-15 13:08:00,
2013-05-15 06:13:00,45.7,42.7,29.98,North,356,1.0,13.0,89,0.00,,OVC012,0.00,VWS V14.01,2013-05-15 13:13:00,
2013-05-15 06:15:00,46.8,42.2,29.97,West,277,3.0,11.0,84,0.00,,CLR,0.00,VWS V14.01,2013-05-15 13:15:00,
2013-05-15 06:18:00,45.8,42.8,30.00,NNW,339,2.0,10.0,89,0.00,,OVC012,0.00,VWS V14.01,2013-05-15 13:18:00,
2013-05-15 06:23:00,45.8,42.8,30.00,West,268,2.0,10.0,89,0.00,,OVC012,0.00,VWS V14.01,2013-05-15 13:23:00,
2013-05-15 06:28:00,46.0,43.2,30.00,NNW,335,2.0,10.0,90,0.00,,OVC012,0.00,VWS V14.01,2013-05-15 13:28:00,
2013-05-15 06:30:00,46.7,42.1,29.97,NW,321,1.0,12.0,84,0.00,,CLR,0.00,VWS V14.01,2013-05-15 13:30:00,
2013-05-15 06:33:00,46.0,43.2,30.00,West,270,3.0,10.0,90,0.00,,BKN014,0.00,VWS V14.01,2013-05-15 13:33:00,
2013-05-15 06:38:00,46.2,43.4,30.00,North,359,2.0,10.0,90,0.00,,BKN014,0.00,VWS V14.01,2013-05-15 13:38:00,
2013-05-15 06:43:00,46.4,43.6,30.00,WNW,286,2.0,10.0,90,0.00,,BKN014,0.00,VWS V14.01,2013-05-15 13:43:00,
2013-05-15 06:45:00,46.2,42.5,29.98,West,281,3.0,10.0,87,0.00,,CLR,0.00,VWS V14.01,2013-05-15 13:45:00,
2013-05-15 06:48:00,46.5,43.7,30.00,NE,34,4.0,10.0,90,0.00,,BKN014,0.00,VWS V14.01,2013-05-15 13:48:00,
2013-05-15 06:53:00,47.0,43.9,30.00,NNW,343,6.0,10.0,89,0.00,,BKN014,0.00,VWS V14.01,2013-05-15 13:53:00,
2013-05-15 06:58:00,47.3,43.9,30.00,West,281,1.0,11.0,88,0.00,,BKN014,0.00,VWS V14.01,2013-05-15 13:58:00,
2013-05-15 07:00:00,45.7,42.7,29.98,WNW,285,9.0,9.0,89,0.00,,CLR,0.00,VWS V14.01,2013-05-15 14:00:00,
2013-05-15 07:04:00,47.6,43.9,30.01,West,260,2.0,10.0,87,0.00,,OVC014,0.00,VWS V14.01,2013-05-15 14:04:00,
2013-05-15 07:09:00,47.7,43.7,30.01,WNW,282,6.0,10.0,86,0.00,,OVC014,0.00,VWS V14.01,2013-05-15 14:09:00,
2013-05-15 07:14:00,48.2,44.2,30.01,NW,314,4.0,10.0,86,0.00,,OVC014,0.00,VWS V14.01,2013-05-15 14:14:00,
2013-05-15 07:15:00,45.7,42.9,30.00,NNW,344,3.0,13.0,90,0.00,,CLR,0.00,VWS V14.01,2013-05-15 14:15:00,
2013-05-15 07:19:00,48.6,44.3,30.01,NW,316,2.0,9.0,85,0.00,,OVC014,0.00,VWS V14.01,2013-05-15 14:19:00,
2013-05-15 07:24:00,49.1,44.5,30.01,WSW,250,0.0,9.0,84,0.00,,OVC014,0.00,VWS V14.01,2013-05-15 14:24:00,
2013-05-15 07:29:00,49.5,44.2,30.01,WNW,288,5.0,9.0,82,0.00,,OVC014,0.00,VWS V14.01,2013-05-15 14:29:00,
2013-05-15 07:30:00,46.0,43.2,30.00,WSW,247,2.0,10.0,90,0.00,,CLR,0.00,VWS V14.01,2013-05-15 14:30:00,
2013-05-15 07:34:00,49.8,44.2,30.01,SW,228,5.0,6.0,81,0.00,,OVC014,0.00,VWS V14.01,2013-05-15 14:34:00,
2013-05-15 07:39:00,50.2,43.6,30.01,NW,304,3.0,11.0,78,0.00,,OVC014,0.00,VWS V14.01,2013-05-15 14:39:00,
2013-05-15 07:44:00,50.8,44.2,30.01,West,277,0.0,11.0,78,0.00,,OVC014,0.00,VWS V14.01,2013-05-15 14:44:00,
2013-05-15 07:45:00,46.4,43.6,30.00,West,274,0.0,10.0,90,0.00,,CLR,0.00,VWS V14.01,2013-05-15 14:45:00,
2013-05-15 07:49:00,51.4,43.8,30.01,WNW,299,3.0,9.0,75,0.00,,OVC014,0.00,VWS V14.01,2013-05-15 14:49:00,
2013-05-15 07:54:00,51.9,43.9,30.01,West,270,2.0,9.0,74,0.00,,OVC014,0.00,VWS V14.01,2013-05-15 14:54:00,
2013-05-15 07:59:00,52.3,43.5,30.01,SW,233,3.0,9.0,72,0.00,,OVC014,0.00,VWS V14.01,2013-05-15 14:59:00,
2013-05-15 08:00:00,47.3,43.9,30.01,West,262,2.0,11.0,88,0.00,,CLR,0.00,VWS V14.01,2013-05-15 15:00:00,
2013-05-15 08:04:00,52.5,43.4,30.01,NW,313,3.0,7.0,71,0.00,,OVC014,0.00,VWS V14.01,2013-05-15 15:04:00,
2013-05-15 08:09:00,53.2,44.4,30.01,North,349,5.0,11.0,72,0.00,,OVC014,0.00,VWS V14.01,2013-05-15 15:09:00,
2013-05-15 08:14:00,53.6,44.1,30.01,West,268,6.0,11.0,70,0.00,,OVC014,0.00,VWS V14.01,2013-05-15 15:14:00,
2013-05-15 08:15:00,48.2,43.9,30.01,West,263,4.0,10.0,85,0.00,,CLR,0.00,VWS V14.01,2013-05-15 15:15:00,
2013-05-15 08:19:00,54.1,44.9,30.01,NNW,340,8.0,8.0,71,0.00,,OVC014,0.00,VWS V14.01,2013-05-15 15:19:00,
2013-05-15 08:25:00,54.7,44.4,30.01,NW,324,2.0,8.0,68,0.00,,OVC014,0.00,VWS V14.01,2013-05-15 15:25:00,
2013-05-15 08:30:00,55.3,45.3,30.01,East,96,0.0,8.0,69,0.00,,OVC014,0.00,VWS V14.01,2013-05-15 15:30:00,
2013-05-15 08:35:00,55.6,43.6,30.01,NNW,329,3.0,8.0,64,0.00,,OVC014,0.00,VWS V14.01,2013-05-15 15:35:00,
2013-05-15 08:40:00,56.0,45.2,30.01,WNW,293,2.0,8.0,67,0.00,,OVC014,0.00,VWS V14.01,2013-05-15 15:40:00,
2013-05-15 08:45:00,55.6,45.6,30.02,West,268,2.0,3.0,69,0.00,,OVC014,0.00,VWS V14.01,2013-05-15 15:45:00,
2013-05-15 08:50:00,55.9,45.9,30.02,West,268,1.0,3.0,69,0.00,,OVC014,0.00,VWS V14.01,2013-05-15 15:50:00,
2013-05-15 08:55:00,56.0,46.0,30.02,SW,214,2.0,3.0,69,0.00,,OVC014,0.00,VWS V14.01,2013-05-15 15:55:00,
2013-05-15 09:00:00,55.6,44.8,30.02,West,268,1.0,3.0,67,0.00,,OVC014,0.00,VWS V14.01,2013-05-15 16:00:00,
2013-05-15 09:05:00,55.7,44.9,30.02,WSW,256,5.0,5.0,67,0.00,,OVC012,0.00,VWS V14.01,2013-05-15 16:05:00,
2013-05-15 09:10:00,56.0,45.2,30.02,WNW,286,4.0,6.0,67,0.00,,OVC012,0.00,VWS V14.01,2013-05-15 16:10:00,
2013-05-15 09:15:00,56.3,45.5,30.02,NNW,329,1.0,3.0,67,0.00,,OVC012,0.00,VWS V14.01,2013-05-15 16:15:00,
2013-05-15 09:20:00,56.9,46.5,30.02,West,260,2.0,4.0,68,0.00,,OVC012,0.00,VWS V14.01,2013-05-15 16:20:00,
2013-05-15 09:26:00,57.6,46.7,30.02,West,277,2.0,4.0,67,0.00,,OVC012,0.00,VWS V14.01,2013-05-15 16:26:00,
2013-05-15 09:30:00,55.3,45.3,30.01,East,96,0.0,8.0,69,0.00,,CLR,0.00,VWS V14.01,2013-05-15 16:30:00,
2013-05-15 09:31:00,58.1,45.6,30.02,West,266,2.0,5.0,63,0.00,,OVC012,0.00,VWS V14.01,2013-05-15 16:31:00,
2013-05-15 09:36:00,58.7,45.7,30.02,West,276,3.0,5.0,62,0.00,,OVC012,0.00,VWS V14.01,2013-05-15 16:36:00,
2013-05-15 09:41:00,59.5,46.1,30.02,NW,312,2.0,9.0,61,0.00,,OVC012,0.00,VWS V14.01,2013-05-15 16:41:00,
2013-05-15 09:45:00,55.6,45.2,30.02,West,268,1.0,8.0,68,0.00,,CLR,0.00,VWS V14.01,2013-05-15 16:45:00,
2013-05-15 09:46:00,60.2,45.4,30.02,West,281,1.0,6.0,58,0.00,,OVC012,0.00,VWS V14.01,2013-05-15 16:46:00,
2013-05-15 09:51:00,60.4,46.0,30.02,WSW,246,2.0,6.0,59,0.00,,OVC012,0.00,VWS V14.01,2013-05-15 16:51:00,
2013-05-15 09:57:00,60.1,43.9,30.02,SSW,210,9.0,9.0,55,0.00,,OVC012,0.00,VWS V14.01,2013-05-15 16:57:00,
2013-05-15 10:00:00,55.6,44.4,30.02,WSW,237,0.0,5.0,66,0.00,,CLR,0.00,VWS V14.01,2013-05-15 17:00:00,
2013-05-15 10:02:00,59.9,45.1,30.02,West,260,4.0,7.0,58,0.00,,FEW016,0.00,VWS V14.01,2013-05-15 17:02:00,
2013-05-15 10:07:00,60.1,45.3,30.02,West,266,4.0,12.0,58,0.00,,FEW016,0.00,VWS V14.01,2013-05-15 17:07:00,
2013-05-15 10:12:00,60.7,45.4,30.02,NW,306,0.0,12.0,57,0.00,,FEW016,0.00,VWS V14.01,2013-05-15 17:12:00,
2013-05-15 10:15:00,56.3,45.1,30.02,North,356,3.0,6.0,66,0.00,,CLR,0.00,VWS V14.01,2013-05-15 17:15:00,
2013-05-15 10:17:00,61.5,44.7,30.02,West,270,4.0,9.0,54,0.00,,FEW016,0.00,VWS V14.01,2013-05-15 17:17:00,
2013-05-15 10:22:00,62.1,46.2,30.02,WNW,284,6.0,9.0,56,0.00,,FEW016,0.00,VWS V14.01,2013-05-15 17:22:00,
2013-05-15 10:27:00,62.7,46.3,30.02,West,262,4.0,9.0,55,0.00,,FEW016,0.00,VWS V14.01,2013-05-15 17:27:00,
2013-05-15 10:30:00,58.1,45.6,30.02,West,266,4.0,4.0,63,0.00,,CLR,0.00,VWS V14.01,2013-05-15 17:30:00,
2013-05-15 10:32:00,63.2,46.3,30.02,West,268,5.0,10.0,54,0.00,,FEW016,0.00,VWS V14.01,2013-05-15 17:32:00,
2013-05-15 10:37:00,63.1,46.2,30.02,NW,325,4.0,10.0,54,0.00,,FEW016,0.00,VWS V14.01,2013-05-15 17:37:00,
2013-05-15 10:42:00,64.2,48.7,30.02,West,271,3.0,10.0,57,0.00,,FEW016,0.00,VWS V14.01,2013-05-15 17:42:00,
2013-05-15 10:45:00,60.1,45.7,30.02,SW,220,6.0,9.0,59,0.00,,CLR,0.00,VWS V14.01,2013-05-15 17:45:00,
2013-05-15 10:47:00,65.0,47.0,30.02,NW,315,3.0,10.0,52,0.00,,FEW016,0.00,VWS V14.01,2013-05-15 17:47:00,
2013-05-15 10:52:00,64.7,45.1,30.02,West,278,4.0,10.0,49,0.00,,FEW016,0.00,VWS V14.01,2013-05-15 17:52:00,
2013-05-15 10:58:00,65.5,44.8,30.02,West,259,7.0,11.0,47,0.00,,FEW016,0.00,VWS V14.01,2013-05-15 17:58:00,
2013-05-15 11:00:00,59.9,44.7,30.02,West,281,7.0,9.0,57,0.00,,CLR,0.00,VWS V14.01,2013-05-15 18:00:00,
2013-05-15 11:03:00,65.0,44.8,30.02,WNW,289,6.0,12.0,48,0.00,,FEW018,0.00,VWS V14.01,2013-05-15 18:03:00,
2013-05-15 11:08:00,64.7,42.3,30.02,West,262,11.0,15.0,44,0.00,,FEW018,0.00,VWS V14.01,2013-05-15 18:08:00,
2013-05-15 11:13:00,64.7,43.5,30.02,North,358,4.0,19.0,46,0.00,,FEW018,0.00,VWS V14.01,2013-05-15 18:13:00,
2013-05-15 11:15:00,61.2,44.0,30.02,West,278,9.0,12.0,53,0.00,,CLR,0.00,VWS V14.01,2013-05-15 18:15:00,
2013-05-15 11:18:00,65.5,43.6,30.02,West,268,13.0,13.0,45,0.00,,FEW018,0.00,VWS V14.01,2013-05-15 18:18:00,
2013-05-15 11:23:00,65.8,42.7,30.02,SSW,198,5.0,13.0,43,0.00,,FEW018,0.00,VWS V14.01,2013-05-15 18:23:00,
2013-05-15 11:28:00,66.6,43.4,30.02,WNW,286,2.0,13.0,43,0.00,,FEW018,0.00,VWS V14.01,2013-05-15 18:28:00,
2013-05-15 11:30:00,62.9,46.0,30.02,West,279,6.0,9.0,54,0.00,,CLR,0.00,VWS V14.01,2013-05-15 18:30:00,
2013-05-15 11:33:00,67.6,42.4,30.02,West,279,3.0,13.0,40,0.00,,FEW018,0.00,VWS V14.01,2013-05-15 18:33:00,
2013-05-15 11:38:00,68.6,44.0,30.02,West,268,10.0,13.0,41,0.00,,FEW018,0.00,VWS V14.01,2013-05-15 18:38:00,
2013-05-15 11:43:00,68.3,42.4,30.02,WNW,297,5.0,13.0,39,0.00,,FEW018,0.00,VWS V14.01,2013-05-15 18:43:00,
2013-05-15 11:45:00,65.0,49.4,30.02,West,270,10.0,10.0,57,0.00,,CLR,0.00,VWS V14.01,2013-05-15 18:45:00,
2013-05-15 11:48:00,68.9,40.9,30.01,West,274,9.0,10.0,36,0.00,,FEW018,0.00,VWS V14.01,2013-05-15 18:48:00,
2013-05-15 11:54:00,69.1,42.5,30.01,SW,233,10.0,13.0,38,0.00,,FEW018,0.00,VWS V14.01,2013-05-15 18:54:00,
2013-05-15 11:59:00,67.9,40.0,30.02,WNW,301,6.0,15.0,36,0.00,,FEW018,0.00,VWS V14.01,2013-05-15 18:59:00,
2013-05-15 12:00:00,65.6,45.4,30.02,WSW,258,6.0,11.0,48,0.00,,CLR,0.00,VWS V14.01,2013-05-15 19:00:00,
2013-05-15 12:04:00,68.6,39.9,30.02,WNW,301,11.0,15.0,35,0.00,,CLR,0.00,VWS V14.01,2013-05-15 19:04:00,
2013-05-15 12:09:00,68.9,42.3,30.02,WNW,288,5.0,15.0,38,0.00,,CLR,0.00,VWS V14.01,2013-05-15 19:09:00,
2013-05-15 12:14:00,68.9,40.2,30.01,WNW,289,13.0,15.0,35,0.00,,CLR,0.00,VWS V14.01,2013-05-15 19:14:00,
2013-05-15 12:15:00,65.5,44.8,30.02,SW,216,1.0,19.0,47,0.00,,CLR,0.00,VWS V14.01,2013-05-15 19:15:00,
2013-05-15 12:19:00,69.9,42.5,30.01,WNW,285,5.0,14.0,37,0.00,,CLR,0.00,VWS V14.01,2013-05-15 19:19:00,
2013-05-15 12:24:00,69.9,43.8,30.01,West,281,12.0,14.0,39,0.00,,CLR,0.00,VWS V14.01,2013-05-15 19:24:00,
2013-05-15 12:29:00,70.1,45.3,30.01,NNW,336,3.0,14.0,41,0.00,,CLR,0.00,VWS V14.01,2013-05-15 19:29:00,
2013-05-15 12:30:00,66.9,44.9,30.02,WNW,287,8.0,15.0,45,0.00,,CLR,0.00,VWS V14.01,2013-05-15 19:30:00,
2013-05-15 12:34:00,70.6,42.4,30.01,WNW,289,4.0,15.0,36,0.00,,CLR,0.00,VWS V14.01,2013-05-15 19:34:00,
2013-05-15 12:39:00,69.9,42.5,30.01,WNW,293,2.0,15.0,37,0.00,,CLR,0.00,VWS V14.01,2013-05-15 19:39:00,
2013-05-15 12:44:00,70.3,41.4,30.01,WNW,285,3.0,15.0,35,0.00,,CLR,0.00,VWS V14.01,2013-05-15 19:44:00,
2013-05-15 12:45:00,68.6,44.6,30.01,West,268,9.0,13.0,42,0.00,,CLR,0.00,VWS V14.01,2013-05-15 19:45:00,
2013-05-15 12:49:00,70.6,42.4,30.01,West,268,2.0,16.0,36,0.00,,CLR,0.00,VWS V14.01,2013-05-15 19:49:00,
2013-05-15 12:55:00,70.1,43.3,30.01,WSW,252,7.0,16.0,38,0.00,,CLR,0.00,VWS V14.01,2013-05-15 19:55:00,
2013-05-15 13:00:00,69.6,44.9,30.01,WNW,293,3.0,4.0,41,0.00,,CLR,0.00,VWS V14.01,2013-05-15 20:00:00,
2013-05-15 13:05:00,70.9,44.7,30.01,South,191,2.0,12.0,39,0.00,,CLR,0.00,VWS V14.01,2013-05-15 20:05:00,
2013-05-15 13:10:00,70.9,44.0,30.01,NW,318,4.0,12.0,38,0.00,,CLR,0.00,VWS V14.01,2013-05-15 20:10:00,
2013-05-15 13:15:00,70.6,44.5,30.01,WSW,257,4.0,7.0,39,0.00,,CLR,0.00,VWS V14.01,2013-05-15 20:15:00,
2013-05-15 13:21:00,70.1,43.3,30.01,NNE,29,0.0,14.0,38,0.00,,CLR,0.00,VWS V14.01,2013-05-15 20:21:00,
2013-05-15 13:26:00,70.3,44.2,30.01,WNW,285,11.0,14.0,39,0.00,,CLR,0.00,VWS V14.01,2013-05-15 20:26:00,
2013-05-15 13:30:00,70.1,45.3,30.01,NNW,336,3.0,14.0,41,0.00,,CLR,0.00,VWS V14.01,2013-05-15 20:30:00,
2013-05-15 13:31:00,69.8,39.4,30.01,NNW,327,7.0,14.0,33,0.00,,CLR,0.00,VWS V14.01,2013-05-15 20:31:00,
2013-05-15 13:36:00,69.9,40.3,30.01,WNW,292,13.0,18.0,34,0.00,,CLR,0.00,VWS V14.01,2013-05-15 20:36:00,
2013-05-15 13:41:00,69.8,43.8,30.01,NW,317,4.0,18.0,39,0.00,,CLR,0.00,VWS V14.01,2013-05-15 20:41:00,
2013-05-15 13:45:00,70.3,41.4,30.01,WNW,285,3.0,15.0,35,0.00,,CLR,0.00,VWS V14.01,2013-05-15 20:45:00,
2013-05-15 13:46:00,70.8,42.5,30.01,NNW,343,12.0,13.0,36,0.00,,CLR,0.00,VWS V14.01,2013-05-15 20:46:00,
2013-05-15 13:51:00,70.8,43.3,30.01,WSW,248,5.0,13.0,37,0.00,,CLR,0.00,VWS V14.01,2013-05-15 20:51:00,
2013-05-15 13:56:00,70.6,42.4,30.01,NNW,342,6.0,13.0,36,0.00,,CLR,0.00,VWS V14.01,2013-05-15 20:56:00,
2013-05-15 14:00:00,69.6,42.9,30.01,NW,318,4.0,16.0,38,0.00,,CLR,0.00,VWS V14.01,2013-05-15 21:00:00,
2013-05-15 14:01:00,69.6,42.2,30.01,WNW,300,6.0,15.0,37,0.00,,CLR,0.00,VWS V14.01,2013-05-15 21:01:00,
2013-05-15 14:06:00,68.9,42.3,30.01,North,352,5.0,20.0,38,0.00,,CLR,0.00,VWS V14.01,2013-05-15 21:06:00,
2013-05-15 14:11:00,68.8,44.2,30.01,NW,320,15.0,20.0,41,0.00,,CLR,0.00,VWS V14.01,2013-05-15 21:11:00,
2013-05-15 14:15:00,70.6,45.1,30.01,NW,315,2.0,12.0,40,0.00,,CLR,0.00,VWS V14.01,2013-05-15 21:15:00,
2013-05-15 14:16:00,68.6,42.0,30.01,NW,322,13.0,20.0,38,0.00,,CLR,0.00,VWS V14.01,2013-05-15 21:16:00,
2013-05-15 14:21:00,68.8,44.8,30.01,West,273,9.0,20.0,42,0.00,,CLR,0.00,VWS V14.01,2013-05-15 21:21:00,
2013-05-15 14:26:00,69.4,44.1,30.01,NW,310,6.0,20.0,40,0.00,,CLR,0.00,VWS V14.01,2013-05-15 21:26:00,
2013-05-15 14:30:00,70.3,42.1,30.01,SW,231,12.0,16.0,36,0.00,,CLR,0.00,VWS V14.01,2013-05-15 21:30:00,
2013-05-15 14:31:00,69.1,44.4,30.02,WNW,285,10.0,17.0,41,0.00,,CLR,0.00,VWS V14.01,2013-05-15 21:31:00,
2013-05-15 14:37:00,69.6,46.1,30.02,West,273,7.0,17.0,43,0.00,,CLR,0.00,VWS V14.01,2013-05-15 21:37:00,
2013-05-15 14:42:00,70.3,46.2,30.02,NNW,333,2.0,17.0,42,0.00,,CLR,0.00,VWS V14.01,2013-05-15 21:42:00,
2013-05-15 14:47:00,69.9,44.5,30.01,WNW,285,13.0,15.0,40,0.00,,CLR,0.00,VWS V14.01,2013-05-15 21:47:00,
2013-05-15 14:52:00,70.3,46.2,30.01,WSW,245,10.0,15.0,42,0.00,,CLR,0.00,VWS V14.01,2013-05-15 21:52:00,
2013-05-15 14:57:00,69.8,45.1,30.01,North,355,0.0,15.0,41,0.00,,CLR,0.00,VWS V14.01,2013-05-15 21:57:00,
2013-05-15 15:00:00,70.1,41.2,30.01,West,271,6.0,17.0,35,0.00,,CLR,0.00,VWS V14.01,2013-05-15 22:00:00,
2013-05-15 15:02:00,69.8,43.8,30.00,SSW,208,10.0,19.0,39,0.00,,CLR,0.00,VWS V14.01,2013-05-15 22:02:00,
2013-05-15 15:07:00,69.1,44.4,30.00,NNE,15,3.0,19.0,41,0.00,,CLR,0.00,VWS V14.01,2013-05-15 22:07:00,
2013-05-15 15:12:00,69.3,44.6,30.00,West,262,4.0,19.0,41,0.00,,CLR,0.00,VWS V14.01,2013-05-15 22:12:00,
2013-05-15 15:15:00,68.6,42.7,30.01,NW,320,20.0,20.0,39,0.00,,CLR,0.00,VWS V14.01,2013-05-15 22:15:00,
2013-05-15 15:17:00,68.9,43.6,30.00,East,95,3.0,18.0,40,0.00,,CLR,0.00,VWS V14.01,2013-05-15 22:17:00,
2013-05-15 15:22:00,68.6,46.4,30.00,NW,322,15.0,18.0,45,0.00,,CLR,0.00,VWS V14.01,2013-05-15 22:22:00,
2013-05-15 15:27:00,69.3,44.6,30.00,West,265,9.0,18.0,41,0.00,,CLR,0.00,VWS V14.01,2013-05-15 22:27:00,
2013-05-15 15:30:00,69.1,45.7,30.02,WNW,302,14.0,20.0,43,0.00,,CLR,0.00,VWS V14.01,2013-05-15 22:30:00,
2013-05-15 15:32:00,69.3,44.6,30.00,NW,314,5.0,14.0,41,0.00,,CLR,0.00,VWS V14.01,2013-05-15 22:32:00,
2013-05-15 15:37:00,68.8,43.5,30.00,NNW,340,6.0,14.0,40,0.00,,CLR,0.00,VWS V14.01,2013-05-15 22:37:00,
2013-05-15 15:42:00,68.6,44.6,30.00,WNW,297,11.0,17.0,42,0.00,,CLR,0.00,VWS V14.01,2013-05-15 22:42:00,
2013-05-15 15:45:00,69.9,45.8,30.01,SW,220,3.0,17.0,42,0.00,,CLR,0.00,VWS V14.01,2013-05-15 22:45:00,
2013-05-15 15:47:00,68.6,42.7,30.00,WSW,258,6.0,18.0,39,0.00,,CLR,0.00,VWS V14.01,2013-05-15 22:47:00,
2013-05-15 15:52:00,68.4,43.8,30.00,WSW,239,4.0,18.0,41,0.00,,CLR,0.00,VWS V14.01,2013-05-15 22:52:00,
2013-05-15 15:58:00,68.1,43.5,30.00,NNW,337,5.0,18.0,41,0.00,,CLR,0.00,VWS V14.01,2013-05-15 22:58:00,
2013-05-15 16:00:00,69.6,44.2,30.00,WNW,283,5.0,15.0,40,0.00,,CLR,0.00,VWS V14.01,2013-05-15 23:00:00,
2013-05-15 16:03:00,67.6,43.1,29.99,NW,304,17.0,23.0,41,0.00,,CLR,0.00,VWS V14.01,2013-05-15 23:03:00,
2013-05-15 16:08:00,67.1,43.9,29.99,WNW,285,3.0,23.0,43,0.00,,CLR,0.00,VWS V14.01,2013-05-15 23:08:00,
2013-05-15 16:13:00,66.6,45.2,29.99,WNW,285,11.0,23.0,46,0.00,,CLR,0.00,VWS V14.01,2013-05-15 23:13:00,
2013-05-15 16:15:00,69.1,45.7,30.00,West,271,7.0,19.0,43,0.00,,CLR,0.00,VWS V14.01,2013-05-15 23:15:00,
2013-05-15 16:18:00,66.3,44.3,29.99,NNE,15,5.0,19.0,45,0.00,,CLR,0.00,VWS V14.01,2013-05-15 23:18:00,
2013-05-15 16:23:00,66.3,44.3,29.99,WNW,295,11.0,19.0,45,0.00,,CLR,0.00,VWS V14.01,2013-05-15 23:23:00,
2013-05-15 16:28:00,66.0,44.7,29.99,NE,39,6.0,19.0,46,0.00,,CLR,0.00,VWS V14.01,2013-05-15 23:28:00,
2013-05-15 16:30:00,69.3,43.3,30.00,WSW,245,4.0,18.0,39,0.00,,CLR,0.00,VWS V14.01,2013-05-15 23:30:00,
2013-05-15 16:33:00,65.6,44.3,29.99,WSW,243,4.0,12.0,46,0.00,,CLR,0.00,VWS V14.01,2013-05-15 23:33:00,
2013-05-15 16:38:00,65.3,45.1,29.99,WNW,284,3.0,22.0,48,0.00,,CLR,0.00,VWS V14.01,2013-05-15 23:38:00,
2013-05-15 16:43:00,64.7,44.0,29.99,West,268,6.0,22.0,47,0.00,,CLR,0.00,VWS V14.01,2013-05-15 23:43:00,
2013-05-15 16:45:00,68.8,44.2,30.00,NW,316,8.0,17.0,41,0.00,,CLR,0.00,VWS V14.01,2013-05-15 23:45:00,
2013-05-15 16:48:00,64.0,43.9,29.98,West,264,13.0,17.0,48,0.00,,CLR,0.00,VWS V14.01,2013-05-15 23:48:00,
2013-05-15 16:53:00,63.7,43.1,29.98,West,261,2.0,17.0,47,0.00,,CLR,0.00,VWS V14.01,2013-05-15 23:53:00,
2013-05-15 16:58:00,63.4,44.5,29.98,NW,311,9.0,17.0,50,0.00,,CLR,0.00,VWS V14.01,2013-05-15 23:58:00,
2013-05-15 17:00:00,67.9,44.0,29.99,West,279,1.0,18.0,42,0.00,,CLR,0.00,VWS V14.01,2013-05-16 00:00:00,
2013-05-15 17:03:00,63.5,42.9,29.99,WSW,252,6.0,12.0,47,0.00,,CLR,0.00,VWS V14.01,2013-05-16 00:03:00,
2013-05-15 17:08:00,63.2,43.7,29.99,NNW,342,2.0,12.0,49,0.00,,CLR,0.00,VWS V14.01,2013-05-16 00:08:00,
2013-05-15 17:13:00,63.1,44.7,29.99,NW,308,5.0,12.0,51,0.00,,CLR,0.00,VWS V14.01,2013-05-16 00:13:00,
2013-05-15 17:15:00,66.6,44.6,29.99,WNW,285,18.0,23.0,45,0.00,,CLR,0.00,VWS V14.01,2013-05-16 00:15:00,
2013-05-15 17:19:00,62.4,45.5,30.00,NW,319,1.0,16.0,54,0.00,,CLR,0.00,VWS V14.01,2013-05-16 00:19:00,
2013-05-15 17:24:00,62.3,45.0,30.00,West,272,6.0,16.0,53,0.00,,CLR,0.00,VWS V14.01,2013-05-16 00:24:00,
2013-05-15 17:29:00,61.6,44.3,30.00,NW,305,7.0,17.0,53,0.00,,CLR,0.00,VWS V14.01,2013-05-16 00:29:00,
2013-05-15 17:30:00,66.0,45.2,29.99,NW,322,4.0,19.0,47,0.00,,CLR,0.00,VWS V14.01,2013-05-16 00:30:00,
2013-05-15 17:34:00,60.9,46.0,30.00,SW,231,5.0,18.0,58,0.00,,CLR,0.00,VWS V14.01,2013-05-16 00:34:00,
2013-05-15 17:39:00,59.9,46.0,30.00,West,262,3.0,19.0,60,0.00,,CLR,0.00,VWS V14.01,2013-05-16 00:39:00,
2013-05-15 17:44:00,59.3,45.9,30.00,NW,313,4.0,19.0,61,0.00,,CLR,0.00,VWS V14.01,2013-05-16 00:44:00,
2013-05-15 17:45:00,64.3,43.1,29.98,NE,49,6.0,22.0,46,0.00,,CLR,0.00,VWS V14.01,2013-05-16 00:45:00,
2013-05-15 17:49:00,59.0,44.3,30.00,WSW,258,9.0,14.0,58,0.00,,CLR,0.00,VWS V14.01,2013-05-16 00:49:00,
2013-05-15 17:54:00,58.6,46.9,30.00,NW,322,3.0,14.0,65,0.00,,CLR,0.00,VWS V14.01,2013-05-16 00:54:00,
2013-05-15 17:59:00,58.4,46.7,30.00,WNW,295,6.0,14.0,65,0.00,,CLR,0.00,VWS V14.01,2013-05-16 00:59:00,
2013-05-15 18:00:00,63.4,43.4,29.99,NW,307,9.0,17.0,48,0.00,,CLR,0.00,VWS V14.01,2013-05-16 01:00:00,
2013-05-15 18:04:00,58.1,46.8,30.00,NW,316,2.0,14.0,66,0.00,,CLR,0.00,VWS V14.01,2013-05-16 01:04:00,
2013-05-15 18:09:00,58.3,47.0,30.00,WNW,289,6.0,14.0,66,0.00,,CLR,0.00,VWS V14.01,2013-05-16 01:09:00,
2013-05-15 18:14:00,58.1,47.2,30.00,WSW,237,4.0,9.0,67,0.00,,CLR,0.00,VWS V14.01,2013-05-16 01:14:00,
2013-05-15 18:15:00,62.9,44.5,30.00,WSW,247,5.0,12.0,51,0.00,,CLR,0.00,VWS V14.01,2013-05-16 01:15:00,
2013-05-15 18:19:00,58.0,47.1,30.00,WSW,254,6.0,9.0,67,0.00,,CLR,0.00,VWS V14.01,2013-05-16 01:19:00,
2013-05-15 18:25:00,57.8,47.3,30.00,SW,220,1.0,10.0,68,0.00,,CLR,0.00,VWS V14.01,2013-05-16 01:25:00,
2013-05-15 18:30:00,57.5,47.4,29.99,West,277,2.0,13.0,69,0.00,,CLR,0.00,VWS V14.01,2013-05-16 01:30:00,
2013-05-15 18:35:00,57.5,47.8,29.99,West,277,1.0,13.0,70,0.00,,CLR,0.00,VWS V14.01,2013-05-16 01:35:00,
2013-05-15 18:40:00,57.3,47.6,29.99,WNW,289,4.0,13.0,70,0.00,,CLR,0.00,VWS V14.01,2013-05-16 01:40:00,
2013-05-15 18:45:00,57.0,47.7,29.99,WSW,249,6.0,6.0,71,0.00,,CLR,0.00,VWS V14.01,2013-05-16 01:45:00,
2013-05-15 18:50:00,56.6,47.7,29.99,WNW,287,9.0,9.0,72,0.00,,CLR,0.00,VWS V14.01,2013-05-16 01:50:00,
2013-05-15 18:55:00,56.2,47.7,29.99,West,281,3.0,9.0,73,0.00,,CLR,0.00,VWS V14.01,2013-05-16 01:55:00,
2013-05-15 19:00:00,55.6,47.5,29.99,SW,234,5.0,5.0,74,0.00,,CLR,0.00,VWS V14.01,2013-05-16 02:00:00,
2013-05-15 19:05:00,55.1,47.3,29.99,WNW,290,4.0,13.0,75,0.00,,CLR,0.00,VWS V14.01,2013-05-16 02:05:00,
2013-05-15 19:10:00,55.0,47.6,29.99,West,275,10.0,13.0,76,0.00,,CLR,0.00,VWS V14.01,2013-05-16 02:10:00,
2013-05-15 19:15:00,54.8,47.4,29.98,WNW,288,1.0,9.0,76,0.00,,CLR,0.00,VWS V14.01,2013-05-16 02:15:00,
2013-05-15 19:20:00,54.8,47.0,29.98,WSW,255,4.0,13.0,75,0.00,,CLR,0.00,VWS V14.01,2013-05-16 02:20:00,
2013-05-15 19:25:00,54.7,46.9,29.98,WNW,294,4.0,16.0,75,0.00,,CLR,0.00,VWS V14.01,2013-05-16 02:25:00,
2013-05-15 19:30:00,57.5,47.4,29.99,West,277,2.0,13.0,69,0.00,,CLR,0.00,VWS V14.01,2013-05-16 02:30:00,
2013-05-15 19:31:00,54.7,46.9,29.98,WNW,286,4.0,11.0,75,0.00,,CLR,0.00,VWS V14.01,2013-05-16 02:31:00,
2013-05-15 19:36:00,54.7,46.9,29.98,North,3,4.0,13.0,75,0.00,,CLR,0.00,VWS V14.01,2013-05-16 02:36:00,
2013-05-15 19:41:00,54.5,46.8,29.98,NNE,15,3.0,13.0,75,0.00,,CLR,0.00,VWS V14.01,2013-05-16 02:41:00,
2013-05-15 19:45:00,57.0,47.7,29.99,West,271,3.0,13.0,71,0.00,,CLR,0.00,VWS V14.01,2013-05-16 02:45:00,
2013-05-15 19:46:00,54.5,46.8,29.98,WNW,302,2.0,9.0,75,0.00,,CLR,0.00,VWS V14.01,2013-05-16 02:46:00,
2013-05-15 19:51:00,54.2,46.5,29.98,NW,326,4.0,11.0,75,0.00,,CLR,0.00,VWS V14.01,2013-05-16 02:51:00,
2013-05-15 19:56:00,54.1,46.4,29.98,NW,308,1.0,15.0,75,0.00,,CLR,0.00,VWS V14.01,2013-05-16 02:56:00,
2013-05-15 20:00:00,55.7,47.5,29.99,WNW,293,3.0,15.0,74,0.00,,CLR,0.00,VWS V14.01,2013-05-16 03:00:00,
2013-05-15 20:01:00,53.8,46.4,29.98,NNW,337,6.0,11.0,76,0.00,,CLR,0.00,VWS V14.01,2013-05-16 03:01:00,
2013-05-15 20:06:00,53.5,46.1,29.98,NNW,336,2.0,16.0,76,0.00,,CLR,0.00,VWS V14.01,2013-05-16 03:06:00,
2013-05-15 20:11:00,53.3,46.3,29.98,West,275,9.0,16.0,77,0.00,,CLR,0.00,VWS V14.01,2013-05-16 03:11:00,
2013-05-15 20:15:00,54.8,47.4,29.98,WNW,285,6.0,19.0,76,0.00,,CLR,0.00,VWS V14.01,2013-05-16 03:15:00,
2013-05-15 20:16:00,53.1,46.4,29.99,West,261,4.0,8.0,78,0.00,,CLR,0.00,VWS V14.01,2013-05-16 03:16:00,
2013-05-15 20:21:00,52.8,46.5,29.99,West,260,0.0,10.0,79,0.00,,CLR,0.00,VWS V14.01,2013-05-16 03:21:00,
2013-05-15 20:26:00,52.6,46.6,29.99,NW,325,3.0,10.0,80,0.00,,CLR,0.00,VWS V14.01,2013-05-16 03:26:00,
2013-05-15 20:30:00,54.7,46.9,29.98,NNW,343,2.0,16.0,75,0.00,,CLR,0.00,VWS V14.01,2013-05-16 03:30:00,
2013-05-15 20:31:00,52.3,46.3,29.99,NNW,344,5.0,7.0,80,0.00,,CLR,0.00,VWS V14.01,2013-05-16 03:31:00,
2013-05-15 20:36:00,52.0,46.4,29.99,West,268,2.0,11.0,81,0.00,,CLR,0.00,VWS V14.01,2013-05-16 03:36:00,
2013-05-15 20:41:00,51.9,46.6,29.99,NW,306,6.0,11.0,82,0.00,,CLR,0.00,VWS V14.01,2013-05-16 03:41:00,
2013-05-15 20:45:00,54.5,46.8,29.98,West,260,0.0,14.0,75,0.00,,CLR,0.00,VWS V14.01,2013-05-16 03:45:00,
2013-05-15 20:46:00,51.7,46.7,30.00,West,266,0.0,6.0,83,0.00,,CLR,0.00,VWS V14.01,2013-05-16 03:46:00,
2013-05-15 20:51:00,51.6,46.6,30.00,WNW,301,2.0,7.0,83,0.00,,CLR,0.00,VWS V14.01,2013-05-16 03:51:00,
2013-05-15 20:56:00,51.4,46.4,30.00,NE,38,5.0,13.0,83,0.00,,CLR,0.00,VWS V14.01,2013-05-16 03:56:00,
2013-05-15 21:00:00,54.1,46.4,29.98,West,270,2.0,15.0,75,0.00,,CLR,0.00,VWS V14.01,2013-05-16 04:00:00,
2013-05-15 21:01:00,51.3,46.3,30.00,NNW,329,1.0,4.0,83,0.00,,CLR,0.00,VWS V14.01,2013-05-16 04:01:00,
2013-05-15 21:06:00,51.3,46.3,30.00,North,350,2.0,13.0,83,0.00,,CLR,0.00,VWS V14.01,2013-05-16 04:06:00,
2013-05-15 21:11:00,51.1,46.1,30.00,NNW,347,3.0,13.0,83,0.00,,CLR,0.00,VWS V14.01,2013-05-16 04:11:00,
2013-05-15 21:15:00,53.2,46.5,29.99,West,277,8.0,16.0,78,0.00,,CLR,0.00,VWS V14.01,2013-05-16 04:15:00,
2013-05-15 21:16:00,51.1,46.4,29.99,NW,316,0.0,1.0,84,0.00,,CLR,0.00,VWS V14.01,2013-05-16 04:16:00,
2013-05-15 21:21:00,51.0,46.3,29.99,NW,318,2.0,6.0,84,0.00,,CLR,0.00,VWS V14.01,2013-05-16 04:21:00,
2013-05-15 21:26:00,50.8,46.2,29.99,North,4,1.0,6.0,84,0.00,,CLR,0.00,VWS V14.01,2013-05-16 04:26:00,
2013-05-15 21:31:00,50.7,46.4,29.99,NW,324,1.0,4.0,85,0.00,,CLR,0.00,VWS V14.01,2013-05-16 04:31:00,
2013-05-15 21:36:00,50.5,46.2,29.99,NE,55,0.0,4.0,85,0.00,,CLR,0.00,VWS V14.01,2013-05-16 04:36:00,
2013-05-15 21:41:00,50.4,46.1,29.99,West,265,1.0,5.0,85,0.00,,CLR,0.00,VWS V14.01,2013-05-16 04:41:00,
2013-05-15 21:45:00,51.7,46.7,30.00,NNW,347,6.0,12.0,83,0.00,,CLR,0.00,VWS V14.01,2013-05-16 04:45:00,
2013-05-15 21:46:00,50.4,46.4,29.99,WNW,303,4.0,11.0,86,0.00,,CLR,0.00,VWS V14.01,2013-05-16 04:46:00,
2013-05-15 21:51:00,50.4,46.1,29.99,NW,317,7.0,13.0,85,0.00,,CLR,0.00,VWS V14.01,2013-05-16 04:51:00,
2013-05-15 21:56:00,50.7,46.4,29.99,NNW,330,9.0,17.0,85,0.00,,CLR,0.00,VWS V14.01,2013-05-16 04:56:00,
2013-05-15 22:00:00,51.3,46.3,30.00,West,272,2.0,13.0,83,0.00,,CLR,0.00,VWS V14.01,2013-05-16 05:00:00,
2013-05-15 22:01:00,50.8,46.5,29.99,NW,321,1.0,13.0,85,0.00,,CLR,0.00,VWS V14.01,2013-05-16 05:01:00,
2013-05-15 22:06:00,50.8,46.5,29.99,NW,308,4.0,13.0,85,0.00,,CLR,0.00,VWS V14.01,2013-05-16 05:06:00,
2013-05-15 22:11:00,51.0,46.7,29.99,West,274,11.0,16.0,85,0.00,,CLR,0.00,VWS V14.01,2013-05-16 05:11:00,
2013-05-15 22:15:00,51.1,46.1,29.99,NW,316,0.0,13.0,83,0.00,,CLR,0.00,VWS V14.01,2013-05-16 05:15:00,
2013-05-15 22:16:00,51.1,46.8,29.99,WNW,289,8.0,10.0,85,0.00,,CLR,0.00,VWS V14.01,2013-05-16 05:16:00,
2013-05-15 22:21:00,51.1,46.8,29.99,WNW,296,2.0,11.0,85,0.00,,CLR,0.00,VWS V14.01,2013-05-16 05:21:00,
2013-05-15 22:26:00,51.0,47.0,29.99,WNW,287,3.0,11.0,86,0.00,,CLR,0.00,VWS V14.01,2013-05-16 05:26:00,
2013-05-15 22:30:00,50.7,46.0,29.99,NNW,343,0.0,6.0,84,0.00,,CLR,0.00,VWS V14.01,2013-05-16 05:30:00,
2013-05-15 22:31:00,50.8,47.1,29.99,WNW,282,7.0,10.0,87,0.00,,CLR,0.00,VWS V14.01,2013-05-16 05:31:00,
2013-05-15 22:36:00,50.7,47.0,29.99,WSW,252,7.0,15.0,87,0.00,,CLR,0.00,VWS V14.01,2013-05-16 05:36:00,
2013-05-15 22:41:00,50.8,47.4,29.99,West,272,2.0,15.0,88,0.00,,CLR,0.00,VWS V14.01,2013-05-16 05:41:00,
2013-05-15 22:46:00,50.7,47.3,29.99,SW,230,3.0,9.0,88,0.00,,CLR,0.00,VWS V14.01,2013-05-16 05:46:00,
2013-05-15 22:51:00,50.5,47.1,29.99,West,281,6.0,12.0,88,0.00,,CLR,0.00,VWS V14.01,2013-05-16 05:51:00,
2013-05-15 22:56:00,50.5,47.4,29.99,NW,312,7.0,12.0,89,0.00,,CLR,0.00,VWS V14.01,2013-05-16 05:56:00,
2013-05-15 23:00:00,50.8,46.5,29.99,North,349,2.0,17.0,85,0.00,,CLR,0.00,VWS V14.01,2013-05-16 06:00:00,
2013-05-15 23:01:00,50.5,47.4,29.99,SSW,208,1.0,6.0,89,0.00,,CLR,0.00,VWS V14.01,2013-05-16 06:01:00,
2013-05-15 23:06:00,50.5,47.4,29.99,WNW,283,6.0,14.0,89,0.00,,CLR,0.00,VWS V14.01,2013-05-16 06:06:00,
2013-05-15 23:11:00,50.5,47.7,29.99,WNW,294,4.0,14.0,90,0.00,,CLR,0.00,VWS V14.01,2013-05-16 06:11:00,
2013-05-15 23:15:00,51.0,46.7,29.99,WSW,238,5.0,16.0,85,0.00,,CLR,0.00,VWS V14.01,2013-05-16 06:15:00,
2013-05-15 23:16:00,50.7,47.9,29.98,SW,229,3.0,13.0,90,0.00,,CLR,0.00,VWS V14.01,2013-05-16 06:16:00,
2013-05-15 23:21:00,50.8,48.3,29.98,NNW,334,12.0,18.0,91,0.00,,CLR,0.00,VWS V14.01,2013-05-16 06:21:00,
2013-05-15 23:26:00,50.8,48.3,29.98,WNW,293,4.0,18.0,91,0.00,,CLR,0.00,VWS V14.01,2013-05-16 06:26:00,
2013-05-15 23:30:00,50.8,46.8,29.99,North,359,3.0,12.0,86,0.00,,CLR,0.00,VWS V14.01,2013-05-16 06:30:00,
2013-05-15 23:31:00,50.8,48.3,29.99,North,349,4.0,6.0,91,0.00,,CLR,0.00,VWS V14.01,2013-05-16 06:31:00,
2013-05-15 23:36:00,50.8,48.3,29.99,NE,56,2.0,11.0,91,0.00,,CLR,0.00,VWS V14.01,2013-05-16 06:36:00,
2013-05-15 23:41:00,51.0,48.5,29.99,West,278,11.0,11.0,91,0.00,,CLR,0.00,VWS V14.01,2013-05-16 06:41:00,
2013-05-15 23:45:00,50.7,47.3,29.99,West,281,5.0,15.0,88,0.00,,CLR,0.00,VWS V14.01,2013-05-16 06:45:00,
2013-05-15 23:46:00,51.0,48.8,29.99,NW,304,7.0,13.0,92,0.00,,CLR,0.00,VWS V14.01,2013-05-16 06:46:00,
2013-05-15 23:51:00,51.0,48.8,29.99,West,259,7.0,13.0,92,0.00,,CLR,0.00,VWS V14.01,2013-05-16 06:51:00,
2013-05-15 23:56:00,51.0,48.8,29.99,SW,217,4.0,13.0,92,0.00,,CLR,0.00,VWS V14.01,2013-05-16 06:56:00,